Regional Weather Roundup
Issued by NWS

Home | Current Version | Previous Version | Text Only | Print | Product List | Glossary Off
Versions: 1 2 3 4 5 6 7 8 9 10 11 12 13 14 15 16 17 18 19 20 21 22 23 24 25 26 27 28 29 30 31 32 33 34 35 36 37 38 39 40 41 42 43 44 45 46 47 48 49 50

000
ASUS43 KOAX 281802
RWRNE

WEATHER ROUNDUP FOR NEBRASKA
NATIONAL WEATHER SERVICE OMAHA NE
100 PM CDT MON JUL 28 2014

NOTES: SATELLITE DATA IS BEING USED TO AUGMENT CLOUD COVER ABOVE
       12000 FEET.
       "FAIR" INDICATES FEW OR NO CLOUDS BELOW 12,000 FEET WITH NO
       SIGNIFICANT WEATHER AND/OR OBSTRUCTIONS TO VISIBILITY.

  * THESE STATIONS DO NOT REPORT WEATHER SUCH AS RAIN...SNOW OR FOG.

NEZ001>004-019>022-054>056-281900-
NEBRASKA PANHANDLE

CITY           SKY/WX    TMP DP  RH WIND       PRES   REMARKS
SCOTTSBLUFF    SUNNY     79  58  48 E10       30.32F
6HR MIN TEMP:  58; 6HR MAX TEMP:  79;

ALLIANCE       SUNNY     79  53  40 SE8G22    30.32F
6HR MIN TEMP:  53; 6HR MAX TEMP:  80;

CHADRON        SUNNY     81  52  36 SE10      30.29F
6HR MIN TEMP:  54; 6HR MAX TEMP:  81;

KIMBALL        PTSUNNY   80  53  39 E5        30.34F
SIDNEY         SUNNY     83  54  36 MISG      30.34F
6HR MIN TEMP:  56; 6HR MAX TEMP:  83;

$$

NEZ057>060-069>072-079>082-281900-
SOUTHWEST NEBRASKA

CITY           SKY/WX    TMP DP  RH WIND       PRES   REMARKS
NORTH PLATTE   SUNNY     79  53  40 E7        30.32F
6HR MIN TEMP:  53; 6HR MAX TEMP:  79;

IMPERIAL       SUNNY     82  56  40 SE16      30.31F
6HR MIN TEMP:  56; 6HR MAX TEMP:  82;

LEXINGTON      SUNNY     76  58  52 E5        30.32F
MCCOOK         MOSUNNY   81  58  45 SE12G17   30.30F
6HR MIN TEMP:  57; 6HR MAX TEMP:  82;

OGALLALA       PTSUNNY   78  55  43 SE10      30.31F
$$

NEZ005>010-023>029-035>040-094-281900-
NORTH CENTRAL NEBRASKA

CITY           SKY/WX    TMP DP  RH WIND       PRES   REMARKS
VALENTINE      MOSUNNY   76  52  43 NE7       30.32F
6HR MIN TEMP:  50; 6HR MAX TEMP:  76;

AINSWORTH      MOSUNNY   72  53  52 CALM      30.33F
BROKEN BOW     MOSUNNY   76  55  48 CALM      30.32F
6HR MIN TEMP:  53; 6HR MAX TEMP:  76;

O`NEILL        MOSUNNY   73  49  43 N3        30.33S
ORD            MOSUNNY   72  54  53 NE5       30.31F
6HR MIN TEMP:  53; 6HR MAX TEMP:  74;

THEDFORD       PTSUNNY   76  53  46 SE6       30.34F
$$

NEZ041-046>049-061>064-073>077-083>087-281900-
SOUTH CENTRAL NEBRASKA

CITY           SKY/WX    TMP DP  RH WIND       PRES   REMARKS
GRAND ISLAND   MOSUNNY   75  55  49 NE7       30.32F
6HR MIN TEMP:  57; 6HR MAX TEMP:  76;

AURORA         MOSUNNY   73  56  55 N7        30.31F
HASTINGS       PTSUNNY   74  55  51 N7        30.32F
6HR MIN TEMP:  58; 6HR MAX TEMP:  75;

HEBRON         PTSUNNY   75  55  50 N8        30.30F
HOLDREGE       SUNNY     74  57  55 NE3       30.32F
KEARNEY *      MOSUNNY   75  55  50 NE3       30.32F
YORK           MOSUNNY   72  55  56 N10G16    30.31F
$$

NEZ011>018-030>034-042>045-281900-
NORTHEAST NEBRASKA

CITY           SKY/WX    TMP DP  RH WIND       PRES   REMARKS
NORFOLK        MOSUNNY   73  52  47 N8G18     30.29F
6HR MIN TEMP:  56; 6HR MAX TEMP:  74;

ALBION         MOSUNNY   69  53  55 N6        30.31F
BLAIR          CLOUDY    70  55  59 N7        30.27S
COLUMBUS *     MOSUNNY   52  52 100 NW10      30.30F
FREMONT        MOSUNNY   74  55  50 N7        30.28S
TEKAMAH        PTSUNNY   73  57  57 NW10      30.26S
6HR MIN TEMP:  57; 6HR MAX TEMP:  76;

WAYNE          MOSUNNY   73  57  56 NW10      30.29S
$$

NEZ050>053-065>068-078-088>093-281900-
SOUTHEAST NEBRASKA

CITY           SKY/WX    TMP DP  RH WIND       PRES   REMARKS
LINCOLN        MOSUNNY   79  53  40 N15G21    30.29F
6HR MIN TEMP:  60; 6HR MAX TEMP:  79;

OMAHA EPPLEY   PTSUNNY   73  56  54 N9        30.26F
6HR MIN TEMP:  58; 6HR MAX TEMP:  73;

BEATRICE       SUNNY     74  56  52 N13G18    30.28F
FALLS CITY     CLOUDY    73  59  61 NW7       30.25S
6HR MIN TEMP:  58; 6HR MAX TEMP:  76;

NEBRASKA CITY  CLOUDY    71  56  58 N6        30.27S
PLATTSMOUTH    CLOUDY    73  55  52 NW6       30.27S
$$

NEZ044-045-051>053-067-281900-
OMAHA AREA

CITY           SKY/WX    TMP DP  RH WIND       PRES   REMARKS
OMAHA EPPLEY   PTSUNNY   73  56  54 N9        30.26F
6HR MIN TEMP:  58; 6HR MAX TEMP:  73;

BLAIR          CLOUDY    70  55  59 N7        30.27S
FREMONT        MOSUNNY   74  55  50 N7        30.28S
MILLARD        MOSUNNY   73  56  54 N7        30.26S
OFFUTT AFB     MOSUNNY   73  58  60 NW7       30.25F
PLATTSMOUTH    CLOUDY    73  55  52 NW6       30.27S
WAHOO          CLOUDY    73  55  52 N10       30.28S
$$


USA.gov is the U.S. government's official web portal to all federal, state and local government web resources and services.